User: anonymous   Login
Location: Albany
(35.0000°S, 118.0000°E)
Time: 13:31:37
(UTC-04:00)
Language:

Transit 2A - Orbit

View from above orbital plane
View from above orbital plane
View from above satellite
View from above satellite

Ground track
Ground track

The orbit data is extracted from the following two-line orbital elements,

1    45U 60007A   17114.60451617 +.00000003 +00000-0 +27725-4 0  9996
2    45 066.6941 170.7736 0248474 071.9624 290.8378 14.33547775901050
Epoch (UTC): 24 April 2017 14:30:30
Eccentricity: 0.0248474
inclination: 66.6941°
perigee height: 602 km
apogee height: 958 km
right ascension of ascending node: 170.7736°
argument of perigee: 71.9624°
revolutions per day: 14.33547775
mean anomaly at epoch: 290.8378°
orbit number at epoch: 90105

The dashed part of the orbit path shows where the satellite is in the earth's shadow,  

DLR